Home   Weather   Potsdam   Past weeks

Flag for Germany Past Weather in Potsdam, Brandenburg, Germany — Yesterday and Last 2 Weeks

Now
52 °F

Clear.


Feels Like: 52 °F
Forecast: 60 / 82 °F
Wind: 2 mph from North

Location: Berlin-Tegel

Current Time: Jun 27, 2017 at 3:47:04 am

Latest Report: Jun 27, 2017 at 2:50 am


Visibility: 10 mi

Pressure: 29.92 "Hg

Humidity: 82%

Dew Point: 46 °F

Location of PotsdamLocation

Past Weather in Potsdam — Graph

°F

Potsdam Temperature Yesterday

Maximum temperature yesterday: 68 °F (at 1:50 pm)
Minimum temperature yesterday: 55 °F (at 8:50 am)
Average temperature yesterday: 62 °F

High & Low Weather Summary for the Past Weeks

 TemperatureHumidityPressure
High86 °F (Jun 19, 4:20 pm)100% (Jun 16, 2:50 am)30.27 "Hg (Jun 16, 2:50 am)
Low52 °F (Jun 14, 3:50 am)27% (Jun 21, 6:20 pm)29.71 "Hg (Jun 22, 8:50 pm)
Average66 °F65%29.97 "Hg
* Reported Jun 12 2:20 am — Jun 27 2:20 am, Potsdam. Weather by CustomWeather, © 2017

Note: Actual official high and low records may vary slightly from our data, if they occured in-between our weather recording intervals... More about our weather records

Advertising

Potsdam Weather History for the Previous 24 Hours

Scroll right to see more
 ConditionsComfort  
Time TempWeatherWind HumidityBarometerVisibility
2:20 am
Tue, Jun 27
55 °FClear.2 mph72%29.92 "Hg10 mi
1:50 am55 °FPassing clouds.3 mph77%29.92 "HgN/A
1:20 am52 °FClear.1 mph88%29.92 "Hg10 mi
12:50 am54 °FClear.2 mph82%29.92 "Hg10 mi
12:20 am55 °FClear.1 mph77%29.92 "Hg10 mi
11:50 pm
Mon, Jun 26
59 °FClear.2 mph68%29.92 "Hg10 mi
11:20 pm61 °FClear.3 mph63%29.92 "Hg10 mi
10:50 pm61 °FClear.3 mph63%29.89 "Hg10 mi
10:20 pm63 °FClear.3 mph59%29.89 "Hg10 mi
9:50 pm63 °FClear.3 mph59%29.89 "Hg10 mi
9:20 pm64 °FPassing clouds.5 mph56%29.89 "HgN/A
8:50 pm66 °FPassing clouds.5 mph52%29.89 "HgN/A
8:20 pm66 °FSunny.6 mph52%29.89 "Hg10 mi
7:50 pm68 °FSunny.10 mph49%29.86 "Hg10 mi
7:20 pm68 °FScattered clouds.12 mph46%29.86 "HgN/A
6:50 pm68 °FScattered clouds.13 mph46%29.86 "HgN/A
6:20 pm68 °FScattered clouds.14 mph49%29.86 "HgN/A
5:50 pm68 °FScattered clouds.13 mph46%29.86 "HgN/A
5:20 pm68 °FScattered clouds.9 mph53%29.86 "HgN/A
4:50 pm68 °FScattered clouds.12 mph49%29.89 "HgN/A
4:20 pm68 °FBroken clouds.12 mph49%29.86 "HgN/A
3:50 pm68 °FBroken clouds.13 mph53%29.86 "HgN/A
3:20 pm68 °FPartly sunny.9 mph49%29.86 "HgN/A
2:50 pm68 °FScattered clouds.12 mph49%29.86 "HgN/A
2:20 pm66 °FScattered clouds.9 mph56%29.86 "HgN/A
1:50 pm68 °FPartly sunny.9 mph53%29.86 "HgN/A
1:20 pm64 °FPartly sunny.7 mph60%29.86 "HgN/A
12:50 pm64 °FPartly sunny.12 mph60%29.86 "HgN/A
12:20 pm63 °FPartly sunny.10 mph64%29.86 "HgN/A
11:50 am63 °FScattered clouds.12 mph68%29.86 "HgN/A
11:20 am61 °FScattered clouds.12 mph68%29.86 "HgN/A
10:50 am61 °FPartly sunny.10 mph72%29.86 "HgN/A
10:20 am59 °FPartly sunny.9 mph82%29.83 "HgN/A
9:50 am57 °FBroken clouds.6 mph88%29.83 "HgN/A
9:20 am55 °FLight rain. Broken clouds.6 mph94%29.83 "Hg4 mi
8:50 am55 °FDrizzle. Broken clouds.10 mph94%29.83 "Hg4 mi
8:20 am57 °FDrizzle. Mostly cloudy.9 mph94%29.80 "Hg2 mi
7:50 am59 °FDrizzle. Mostly cloudy.6 mph94%29.80 "Hg1 mi
7:20 am59 °FDrizzle. Broken clouds.6 mph94%29.77 "Hg2 mi
6:50 am59 °FLight rain. Partly sunny.6 mph94%29.80 "HgN/A
6:20 am59 °FPartly sunny.6 mph94%29.80 "HgN/A
5:50 am59 °FPartly sunny.3 mph94%29.80 "HgN/A
5:20 am59 °FPartly sunny.6 mph94%29.80 "HgN/A
4:50 am57 °FBroken clouds.5 mph94%29.80 "HgN/A
4:20 am59 °FPassing clouds.7 mph94%29.80 "HgN/A
3:50 am59 °FLight rain. Partly cloudy.7 mph94%29.80 "HgN/A
3:20 am59 °FLight rain. Partly cloudy.8 mph94%29.83 "HgN/A
Weather by CustomWeather, © 2017

See weather overviewHow to use our weather pages